TimeMST,TemperatureF,Dew PointF,Humidity,Sea Level PressureIn,VisibilityMPH,Wind Direction,Wind SpeedMPH,Gust SpeedMPH,PrecipitationIn,Events,Conditions,WindDirDegrees,DateUTC
12:53 AM,3.0,-2.0,80,30.50,10.0,West,3.5,-,N/A,,Clear,280,2014-01-28 07:53:00
1:53 AM,1.9,-2.0,83,30.48,10.0,WSW,4.6,-,N/A,,Clear,240,2014-01-28 08:53:00
2:53 AM,3.0,-2.0,80,30.43,10.0,SW,6.9,-,N/A,,Clear,230,2014-01-28 09:53:00
3:53 AM,3.9,-0.9,80,30.40,10.0,Calm,Calm,-,N/A,,Clear,0,2014-01-28 10:53:00
4:53 AM,3.9,-0.9,80,30.37,10.0,West,3.5,-,N/A,,Clear,260,2014-01-28 11:53:00
5:53 AM,3.9,-0.0,84,30.35,10.0,ESE,3.5,-,N/A,,Clear,110,2014-01-28 12:53:00
6:53 AM,3.9,-0.0,84,30.33,10.0,ENE,5.8,-,N/A,,Clear,60,2014-01-28 13:53:00
7:53 AM,3.9,-0.9,80,30.30,10.0,Calm,Calm,-,N/A,,Clear,0,2014-01-28 14:53:00
8:53 AM,3.9,-0.0,84,30.27,10.0,ENE,4.6,-,N/A,,Clear,70,2014-01-28 15:53:00
9:53 AM,9.0,3.0,77,30.24,10.0,ENE,5.8,-,N/A,,Clear,70,2014-01-28 16:53:00
10:53 AM,15.1,7.0,70,30.18,10.0,Calm,Calm,-,N/A,,Clear,0,2014-01-28 17:53:00
11:53 AM,23.0,10.9,60,30.13,10.0,ESE,5.8,-,N/A,,Clear,110,2014-01-28 18:53:00
12:53 PM,36.0,10.0,34,30.05,10.0,SW,20.7,-,N/A,,Clear,230,2014-01-28 19:53:00
1:53 PM,37.0,12.0,36,30.01,10.0,SW,19.6,-,N/A,,Clear,230,2014-01-28 20:53:00
2:53 PM,39.9,12.9,33,29.96,10.0,WSW,16.1,25.3,N/A,,Clear,240,2014-01-28 21:53:00
3:53 PM,41.0,16.0,36,29.94,10.0,WSW,13.8,-,N/A,,Clear,240,2014-01-28 22:53:00
4:53 PM,37.0,16.0,42,29.93,10.0,SW,15.0,-,N/A,,Clear,230,2014-01-28 23:53:00
5:53 PM,32.0,17.1,54,29.93,10.0,SW,11.5,-,N/A,,Clear,230,2014-01-29 00:53:00
6:53 PM,32.0,18.0,56,29.92,10.0,SW,15.0,-,N/A,,Clear,230,2014-01-29 01:53:00
7:53 PM,30.9,18.0,59,29.91,10.0,SW,16.1,-,N/A,,Clear,230,2014-01-29 02:53:00
8:53 PM,33.1,19.9,59,29.91,10.0,WSW,18.4,-,N/A,,Clear,240,2014-01-29 03:53:00
9:53 PM,33.1,19.9,59,29.90,10.0,SW,23.0,29.9,N/A,,Clear,220,2014-01-29 04:53:00
10:53 PM,33.1,21.0,61,29.87,10.0,SW,19.6,-,N/A,,Clear,230,2014-01-29 05:53:00
11:53 PM,32.0,21.0,64,29.84,10.0,SW,18.4,-,N/A,,Clear,220,2014-01-29 06:53:00